TimeCDT,TemperatureF,Dew PointF,Humidity,Sea Level PressureIn,VisibilityMPH,Wind Direction,Wind SpeedMPH,Gust SpeedMPH,PrecipitationIn,Events,Conditions,WindDirDegrees,DateUTC
12:21 AM,48.2,48.2,100,30.02,1.8,SSE,3.5,-,N/A,,Clear,160,2012-09-16 05:21:00
12:31 AM,48.2,46.4,93,30.01,3.0,Calm,Calm,-,N/A,,Clear,0,2012-09-16 05:31:00
12:54 AM,50.0,48.9,96,30.01,10.0,Calm,Calm,-,N/A,,Clear,0,2012-09-16 05:54:00
1:54 AM,48.9,48.0,97,30.00,10.0,SSE,3.5,-,N/A,,Clear,150,2012-09-16 06:54:00
2:54 AM,53.1,46.9,80,29.98,10.0,South,4.6,-,N/A,,Clear,170,2012-09-16 07:54:00
3:54 AM,52.0,46.0,80,29.97,10.0,Calm,Calm,-,N/A,,Clear,0,2012-09-16 08:54:00
5:54 AM,59.0,45.0,60,29.95,10.0,West,4.6,-,N/A,,Clear,260,2012-09-16 10:54:00
6:54 AM,61.0,45.0,56,29.95,10.0,West,6.9,-,N/A,,Clear,260,2012-09-16 11:54:00
7:54 AM,63.0,45.0,52,29.95,10.0,WSW,8.1,-,N/A,,Scattered Clouds,240,2012-09-16 12:54:00
8:54 AM,68.0,48.0,49,29.95,10.0,WSW,11.5,20.7,N/A,,Mostly Cloudy,240,2012-09-16 13:54:00
9:54 AM,69.1,50.0,51,29.94,10.0,WSW,6.9,17.3,N/A,,Mostly Cloudy,250,2012-09-16 14:54:00
10:54 AM,73.9,50.0,43,29.93,10.0,WSW,8.1,-,N/A,,Clear,240,2012-09-16 15:54:00
11:54 AM,77.0,46.9,34,29.92,10.0,SW,11.5,23.0,N/A,,Clear,230,2012-09-16 16:54:00
12:54 PM,80.1,46.0,30,29.90,10.0,WSW,15.0,20.7,N/A,,Clear,240,2012-09-16 17:54:00
1:54 PM,80.1,45.0,29,29.88,10.0,SSW,18.4,31.1,N/A,,Clear,210,2012-09-16 18:54:00
2:54 PM,81.0,46.9,30,29.85,10.0,SW,12.7,24.2,N/A,,Clear,230,2012-09-16 19:54:00
3:54 PM,80.1,45.0,29,29.84,10.0,SW,15.0,23.0,N/A,,Clear,230,2012-09-16 20:54:00
4:54 PM,79.0,44.1,29,29.83,10.0,South,17.3,21.9,N/A,,Clear,190,2012-09-16 21:54:00
5:54 PM,75.9,44.1,32,29.84,10.0,SW,11.5,19.6,N/A,,Clear,220,2012-09-16 22:54:00
6:54 PM,71.1,44.1,38,29.84,10.0,South,6.9,-,N/A,,Clear,190,2012-09-16 23:54:00
7:54 PM,68.0,42.1,39,29.85,10.0,South,8.1,-,N/A,,Clear,190,2012-09-17 00:54:00
8:54 PM,66.9,43.0,42,29.85,10.0,SSW,6.9,-,N/A,,Clear,200,2012-09-17 01:54:00
9:54 PM,66.0,44.1,45,29.86,10.0,NNW,6.9,-,N/A,,Scattered Clouds,330,2012-09-17 02:54:00
10:54 PM,63.0,46.0,54,29.85,10.0,Calm,Calm,-,N/A,,Clear,0,2012-09-17 03:54:00
11:54 PM,63.0,46.9,56,29.83,10.0,Calm,Calm,-,N/A,,Clear,0,2012-09-17 04:54:00